CZ-3B DEB, 40162

Orbit data source: Space-Track

CZ-3B DEB, 40162 is space debris in HEO originally from a launch on Sat, 04 Sep 2010 UTC launched from the Xichang Space Center, China (XSC). Debris objects in space refer to the collection of defunct objects orbiting the Earth. Examples of debris include non-operational satellites, rocket bodies, and fragments generated from explosions, collisions, or faulty payload assembly.

Loading next visibility...
Identifier
40162, 2010-042P
Orbit
HEO
Last TLE update
1 day ago
Origin
Manufacturer
CALT
Mission
Spacecraft
Bus & Motor
Unknown
Mass
Unknown
Launch date (UTC)
2010-09-04 (15 years ago)
Launch vehicle
Unknown
Launch site
Xichang Space Center, China (XSC)
Object type
Payload
Rocket body
Debris
Shape & HBR
Unknown
Radar Cross Section
Medium (>0.1 m² and <1 m²)

Expand to show TLE details & history

TLE from 1 day ago
0 CZ-3B DEB
1 40162U 10042P   25186.87976465  .00000074  00000-0  00000-0 0  9995
2 40162  27.3539 339.2245 7209331 218.9120  56.7941  1.92047231 81550
Epoch: 2025-07-05T21:06Z
TLE epoch observation values (Epoch: 2025-07-05T21:06:51.665Z)
Latitude
-0.00006°
Longitude
98.38149°
Altitude
23,552.619 km
Speed
3.472 km/s
True Right ascension
22h 36m 49s
True Declination
0° 00' 00"
Sunlit
Object was in daylight at epoch
Visualization orbit readout
Latitude
4.34537°
Longitude
106.56768°
Altitude
28,670.054 km
Speed
2.858 km/s
Apparent Right ascension
23h 06m 34s
Apparent Declination
-2° 02' 24"
Sunlit
Object is in daylight
Visualization observer readout
Local Sidereal Time
10:45:07
Azimuth
351.311° N
Elevation
-51.812°
Doppler factor
1
Orbital elements
Apogee altitude
40,677.674 km
Perigee altitude
1,252.444 km
Semi-major axis
27,343.196 km
Eccentricity
0.72093
Inclination
27.3539°
RAAN
339.2245°
Arg. of periapsis
218.912°
True anomaly
Unknown
Mean anomaly
56.7941°
Eccentric anomaly
Unknown
Mean motion
0.48003 °/min
Orbital period
749.95 mins
BSTAR
0
Loading maneuver chart data...
Loading SW <> Apogee altitude chart data...
Loading historical data...
Loading historical data...
Loading historical data...
Loading historical data...
Loading historical data...
Loading historical data...
Loading historical data...

CZ-3B DEB Visibility forecast

Observer location: undefined°, undefined°

Span
Click to sort rows by Start time (UTC) header in descending order
Start Az.
Max El. time (UTC)
Max El. Az.
Max El.
End time (UTC)
End Az.
690 mins2025-07-07 09:23:56.414Z196.469° SSW2025-07-07 13:16:56.414Z210.741° SW39.264°2025-07-07 20:53:56.414Z158.092° S
|